TimeEST,TemperatureF,Dew PointF,Humidity,Sea Level PressureIn,VisibilityMPH,Wind Direction,Wind SpeedMPH,Gust SpeedMPH,PrecipitationIn,Events,Conditions,WindDirDegrees,DateUTC
12:05 AM,61.0,59.0,93,29.76,10.0,SW,9.2,-,N/A,,Overcast,220,2012-12-11 05:05:00
12:54 AM,60.1,57.9,93,29.74,10.0,WSW,4.6,-,N/A,,Mostly Cloudy,240,2012-12-11 05:54:00
1:02 AM,60.1,59.0,96,29.75,10.0,WSW,5.8,-,N/A,,Mostly Cloudy,240,2012-12-11 06:02:00
1:54 AM,59.0,57.9,96,29.74,10.0,SW,8.1,-,N/A,,Mostly Cloudy,220,2012-12-11 06:54:00
2:01 AM,59.0,57.9,96,29.77,10.0,WSW,6.9,-,N/A,,Scattered Clouds,240,2012-12-11 07:01:00
2:47 AM,59.0,57.9,96,29.78,10.0,WSW,5.8,-,N/A,,Mostly Cloudy,240,2012-12-11 07:47:00
2:54 AM,59.0,57.9,96,29.76,10.0,SW,5.8,-,N/A,,Mostly Cloudy,220,2012-12-11 07:54:00
3:07 AM,59.0,59.0,100,29.78,10.0,SSW,4.6,-,N/A,,Overcast,210,2012-12-11 08:07:00
3:54 AM,57.9,57.0,97,29.78,10.0,SW,5.8,-,N/A,,Overcast,220,2012-12-11 08:54:00
4:24 AM,57.0,57.0,100,29.80,9.0,SW,6.9,-,N/A,,Mostly Cloudy,220,2012-12-11 09:24:00
4:54 AM,55.0,55.0,100,29.80,6.0,SSW,4.6,-,N/A,,Scattered Clouds,210,2012-12-11 09:54:00
5:54 AM,55.0,55.0,100,29.82,7.0,SSW,4.6,-,N/A,,Overcast,210,2012-12-11 10:54:00
6:29 AM,53.1,53.1,100,29.85,1.8,SW,4.6,-,N/A,,Scattered Clouds,230,2012-12-11 11:29:00
6:46 AM,53.1,53.1,100,29.86,3.0,WSW,3.5,-,N/A,,Partly Cloudy,240,2012-12-11 11:46:00
6:54 AM,53.1,53.1,100,29.85,4.0,WSW,4.6,-,N/A,,Clear,240,2012-12-11 11:54:00
7:07 AM,53.1,53.1,100,29.87,2.0,WNW,4.6,-,N/A,,Clear,290,2012-12-11 12:07:00
7:17 AM,53.1,53.1,100,29.87,8.0,WNW,4.6,-,N/A,,Clear,290,2012-12-11 12:17:00
7:54 AM,53.1,52.0,96,29.89,9.0,West,3.5,-,N/A,,Clear,260,2012-12-11 12:54:00
9:54 AM,55.0,48.0,77,29.94,10.0,North,8.1,-,N/A,,Clear,360,2012-12-11 14:54:00
10:54 AM,55.0,43.0,64,29.96,10.0,North,6.9,-,N/A,,Clear,10,2012-12-11 15:54:00
11:54 AM,57.0,43.0,59,29.95,10.0,Variable,5.8,-,N/A,,Clear,0,2012-12-11 16:54:00
12:54 PM,57.9,43.0,58,29.93,10.0,Calm,Calm,-,N/A,,Clear,0,2012-12-11 17:54:00
1:54 PM,59.0,44.1,58,29.95,10.0,North,3.5,-,N/A,,Clear,10,2012-12-11 18:54:00
2:54 PM,59.0,43.0,55,29.96,10.0,North,6.9,-,N/A,,Scattered Clouds,10,2012-12-11 19:54:00
3:54 PM,57.0,43.0,59,29.98,10.0,NNE,5.8,-,N/A,,Clear,20,2012-12-11 20:54:00
4:54 PM,55.0,41.0,59,30.01,10.0,NNE,5.8,-,N/A,,Mostly Cloudy,20,2012-12-11 21:54:00
5:54 PM,53.1,39.9,61,30.02,10.0,NNE,4.6,-,N/A,,Scattered Clouds,30,2012-12-11 22:54:00
6:54 PM,52.0,39.0,61,30.05,10.0,NE,4.6,-,N/A,,Clear,40,2012-12-11 23:54:00
7:54 PM,51.1,36.0,56,30.06,10.0,NE,4.6,-,N/A,,Clear,40,2012-12-12 00:54:00
8:54 PM,51.1,35.1,54,30.09,10.0,NE,5.8,-,N/A,,Clear,40,2012-12-12 01:54:00
9:54 PM,48.9,34.0,56,30.12,10.0,NNE,9.2,-,N/A,,Clear,20,2012-12-12 02:54:00
10:54 PM,46.9,32.0,56,30.12,10.0,NNE,12.7,-,N/A,,Clear,30,2012-12-12 03:54:00
11:54 PM,46.0,30.9,56,30.15,10.0,NNE,4.6,-,N/A,,Clear,30,2012-12-12 04:54:00